sat.trackr.live / text

‹ back to catalog

STARLINK-35720

NORAD 67052 · 2025-294Y

PAYLOAD ACTIVE UNKNOWN

§ Identity

Operator
Country
US
Launch date
2025-12-11
Launch site
AFETR
Launch vehicle
Mass (kg)
RCS (m²)

Purposes: comms

External: N2YO · Heavens-Above · Gunter

§ Orbital elements

Epoch: 2026-09-19T15:32:19.602240Z

Period
94.27 min
Inclination
43.0013°
Eccentricity
0.0000972
Mean motion
15.27585669 rev/d
Perigee alt
482.4 km
Apogee alt
483.7 km
Semi-major
6,861.2 km
B*
3.7324e-4
RAAN
22.6029°
Arg perigee
262.7973°
Mean anomaly
97.2768°
Rev number
4,446

§ Raw data

STARLINK-357201 67052U 25294Y   26262.64744910  .00010024  00000+0  37324-3 0  99932 67052  43.0013  22.6029 0000972 262.7973  97.2768 15.27585669 44469

JSON: /api/v1/satellites/67052 · /tle

For live sub-satellite position, see the globe view (requires WebGL).

§ Visibility from observer

Set your observer location to see the next 7 days of passes ≥ 10°. The values pass through the URL so the page stays shareable.

No JS? Fill the form by hand. The geolocation button needs JavaScript.